Location: ?????????
(53.2086°N, 54.0693°E)
Time: 20:02:12
(UTC+00:00)

Cosmos 2369 Rocket - Pass Details

Date: 08 December 2019
Orbit: 828 x 853 km, 71.0° (Epoch: 18 January)

Event Time Altitude Azimuth Distance (km) Brightness Sun altitude
Rises 14:22:41 0° 328° (NNW) 3,388 5.6 -19.1°
Reaches altitude 10° 14:25:23 10° 338° (NNW) 2,454 4.7 -19.5°
Maximum altitude 14:30:26 33° 42° (NE) 1,375 2.9 -20.2°
Enters shadow 14:30:36 33° 45° (NE) 1,377 2.9 -20.2°
